This demonstration page uses our WeatherBlox Daily Observations layout. Learn more.

Left ArrowRight Arrow

Hourly Observations for January 23, 2022

Temp ( °F °C ) Dew Point ( °F °C ) Humidity (%) Winds ( mph kmh ) Pressure ( in mb ) Visibility ( mi km ) Precip ( " mm )
12:53 am 00:53 Clear 29 -1.7 24 -4.4 82 82 Calm 30.21 1023 10 16 0.00 0.00
1:53 am 01:53 Clear 29 -1.7 21 -6.1 72 72 Calm 30.20 1023 10 16 0.00 0.00
2:53 am 02:53 Clear 28 -2.2 21 -6.1 75 75 Calm 30.18 1022 10 16 0.00 0.00
3:53 am 03:53 Clear 27 -2.8 21 -6.1 78 78 Calm 30.16 1022 10 16 0.00 0.00
4:53 am 04:53 Clear 26 -3.3 20 -6.7 78 78 Calm 30.15 1021 10 16 0.00 0.00
5:53 am 05:53 Clear 25 -3.9 20 -6.7 81 81 Calm 30.14 1021 10 16 0.00 0.00
6:53 am 06:53 Clear 26 -3.3 21 -6.1 81 81 Calm 30.14 1021 10 16 0.00 0.00
7:53 am 07:53 Sunny 25 -3.9 19 -7.2 78 78 Calm 30.16 1021 10 16 0.00 0.00
8:53 am 08:53 Sunny 29 -1.7 21 -6.1 72 72 W 7 11 30.15 1021 10 16 0.00 0.00
9:53 am 09:53 Sunny 33 0.6 21 -6.1 61 61 W 9 15 30.14 1021 10 16 0.00 0.00
10:53 am 10:53 Sunny 37 2.8 19 -7.2 48 48 WSW 5 7 30.13 1020 10 16 0.00 0.00
11:53 am 11:53 Sunny 43 6.1 19 -7.2 38 38 W 9 15 30.11 1020 10 16 0.00 0.00
12:53 pm 12:53 Sunny 46 7.8 21 -6.1 37 37 W 12 19 30.06 1018 10 16 0.00 0.00
1:53 pm 13:53 Sunny 48 8.9 23 -5 37 37 W 9 15 30.03 1017 10 16 0.00 0.00
2:53 pm 14:53 Sunny 50 10 25 -3.9 38 38 W 8 13 29.99 1016 10 16 0.00 0.00
3:53 pm 15:53 Sunny 50 10 24 -4.4 36 36 WSW 8 13 29.98 1015 10 16 0.00 0.00
4:53 pm 16:53 Sunny 50 10 24 -4.4 36 36 W 10 17 29.98 1015 10 16 0.00 0.00
5:53 pm 17:53 Sunny 46 7.8 24 -4.4 42 42 W 6 9 29.97 1015 10 16 0.00 0.00
6:53 pm 18:53 Clear 44 6.7 22 -5.6 41 41 WSW 5 7 29.98 1015 10 16 0.00 0.00
7:53 pm 19:53 Clear 42 5.6 23 -5 47 47 SW 3 6 29.99 1016 10 16 0.00 0.00
8:53 pm 20:53 Clear 40 4.4 23 -5 51 51 SSW 5 7 29.98 1015 10 16 0.00 0.00
9:53 pm 21:53 Clear 39 3.9 25 -3.9 57 57 SW 3 6 29.99 1016 10 16 0.00 0.00
10:53 pm 22:53 Clear 33 0.6 26 -3.3 75 75 Calm 30.00 1016 10 16 0.00 0.00
11:53 pm 23:53 Clear 32 0 27 -2.8 82 82 Calm 29.99 1016 10 16 0.00 0.00

Powered by AerisWeather